Regional Weather Roundup
Issued by NWS

Home | Current Version | Previous Version | Graphics & Text | Print | Product List | Glossary On
Versions: 1 2 3 4 5 6 7 8 9 10 11 12 13 14 15 16 17 18 19 20 21 22 23 24 25 26 27 28 29 30 31 32 33 34 35 36 37 38 39 40 41 42 43 44 45 46 47 48 49 50
000
ASUS45 KTFX 270404
RWRMT
MONTANA HOURLY WEATHER ROUNDUP
NATIONAL WEATHER SERVICE GREAT FALLS MT
1004 PM MDT TUE AUG 26 2014

NOTE: "FAIR" INDICATES FEW OR NO CLOUDS BELOW 12000 FEET WITH NO
SIGNIFICANT WEATHER AND/OR OBSTRUCTIONS TO VISIBILITY.

* THESE STATIONS ARE NOT UNDER NWS QUALITY CONTROL. THEY DO NOT
   REPORT WEATHER SUCH AS PRECIPITATION OR FOG.

MTZ001>007-043-270500-
WEST OF THE DIVIDE
CITY           SKY/WX    TMP DP  RH WIND       PRES   REMARKS
KALISPELL      CLEAR     57  48  72 SW3       30.05R
MISSOULA       CLEAR     64  45  50 N6        30.09R
BUTTE          CLEAR     55  46  72 SE8       30.22R
MULLAN PASS    CLEAR     57  39  51 NW3       30.24R
* LINCOLN      N/A       57  44  62 N1         N/A
* LOOKOUT PASS N/A       58  45  62 N/A        N/A
* POLSON       N/A       61  44  54 S2         N/A
* RONAN APT    CLEAR     57  46  67 N/A        N/A
* SEELEY LAKE  N/A       58  43  58 NE2        N/A
* THOMP F APT  CLEAR     51  40  66 N4         N/A
$$

MTZ008-052>055-270500-
SOUTHWEST MONTANA
CITY           SKY/WX    TMP DP  RH WIND       PRES   REMARKS
BOZEMAN        CLEAR     61  48  62 S9        30.15R
DILLON         CLEAR     55  46  72 S10       30.17R
W YELLOWSTONE  CLEAR     46  41  83 NE3       30.29R
* THREE FORKS  CLEAR     63  37  38 N/A        N/A
* BOULDER HILL N/A       56  39  53 N/A        N/A
* MONIDA PASS  N/A       53  39  59 SE4        N/A
* RAYNOLDS PAS N/A       52  29  41 SE5        N/A
* WHITEHALL    N/A       62  46  56 NW5        N/A
* WISE RIVER   N/A       58  43  58 SE5        N/A
$$

MTZ009>010-012-014-046-048-049-054-270500-
EAST SLOPES AND CENTRAL MONTANA
CITY           SKY/WX    TMP DP  RH WIND       PRES   REMARKS
CUT BANK       CLEAR     61  46  58 W10       30.06R
GREAT FALLS    CLEAR     61  45  56 S9        30.06R
HELENA         CLEAR     64  45  50 W7        30.11R
MALMSTROM AFB  CLEAR     61  46  58 S12       30.07R
* CONRAD       CLEAR     57  48  72 N/A        N/A
* DEARBORN     N/A       64  43  47 S2         N/A
* EAST GLACIER N/A       58  43  58 W3         N/A
* MONARCH      N/A       53  36  53 S10        N/A
* PENDROY      N/A       64  42  45 NW12       N/A
* ROGERS PASS  N/A       54  39  57 NW5        N/A
* SAINT MARY   N/A       63  44  50 S6G12      N/A
* SWEET GRASS  N/A       66  45  47 SW12       N/A
$$

MTZ011-013-016-021-035-040-045-047-050-051-270500-
NORTH CENTRAL MONTANA
CITY           SKY/WX    TMP DP  RH WIND       PRES   REMARKS
HAVRE          CLEAR     61  52  72 SE7       30.03R
LEWISTOWN      CLEAR     57  48  72 E6        30.13R
* CHESTER      N/A       65  45  49 SE4G9      N/A
* DENTON       N/A       60  43  54 E3         N/A
* GEYSER       N/A       53  42  66 SW7        N/A
* JUDITH GAP   N/A       56  44  64 SE6        N/A
* LOMA         N/A       67  46  47 E8         N/A
$$

MTZ017>020-022>027-061-062-270500-
NORTHEAST MONTANA
CITY           SKY/WX    TMP DP  RH WIND       PRES   REMARKS
GLASGOW        CLEAR     59  52  78 E10       30.07R
GLENDIVE       CLEAR     61  52  72 E3        30.13S
JORDAN         CLEAR     57  54  90 CALM      30.08S
SIDNEY         CLEAR     59  50  72 CALM      30.13R
WOLF POINT     CLEAR     59  52  78 E3        30.09R
* BEAVER HILL  N/A       58  53  84 SE7        N/A
* CIRCLE       N/A       63  53  70 N/A        N/A
* LINDSAY DVD  N/A       56  49  77 N/A        N/A
* NAVAJO       N/A       56  46  69 S8         N/A
$$

MTZ028>042-056>058-270500-
SOUTHCENTRAL AND SOUTHEAST MONTANA
CITY           SKY/WX    TMP DP  RH WIND       PRES   REMARKS
BAKER          CLEAR     55  52  90 SE6       30.16R
BILLINGS       CLEAR     70  46  42 SE7       30.12R
LIVINGSTON     CLEAR     61  45  56 CALM      30.15R
MILES CITY     CLEAR     64  52  65 E6        30.11R
* LAUREL APT   CLEAR     64  45  50 N/A        N/A
* ROUNDUP APT  CLEAR     66  46  49 N/A        N/A
* ALZADA       N/A       62  55  78 NE6        N/A
* HYSHAM       N/A       65  39  39 SE4        N/A
* LAME DEER    N/A       64  45  50 E5         N/A
* REED POINT   N/A       64  47  54 SW1        N/A
* ROSCOE HILL  N/A       61  37  41 S8         N/A
$$

REGIONAL REPORTS...DAKOTAS
CITY           SKY/WX    TMP DP  RH WIND       PRES   REMARKS
WILLISTON      CLEAR     54  48  80 CALM      30.12R
DICKINSON      CLEAR     52  52 100 SE8       30.16R
BEACH          N/A       54  54 100 SE7       30.15S
CROSBY         CLEAR     55  52  90 S9        30.12S
TIOGA          CLEAR     46  46 100 CALM      30.17S
WATFORD CITY   CLEAR     55  50  83 SE5       30.12R
BISMARCK       CLOUDY    55  54  96 NE3       30.19R
GRAND FORKS    FAIR      55  54  96 SW6       30.15R
FARGO          MOCLDY    59  57  93 W3        30.18R
BUFFALO SD     CLEAR     55  54  96 E10       30.11R
RAPID CITY     PTCLDY    63  55  75 SE8       30.16R
$$

REGIONAL REPORTS...WYOMING/IDAHO/WASHINGTON
CITY           SKY/WX    TMP DP  RH WIND       PRES   REMARKS
GILLETTE       PTCLDY    54  52  93 S5        30.19R
SHERIDAN       CLEAR     55  50  83 CALM      30.16R
CODY           PTCLDY    61  50  67 CALM      30.19S
YELLOWSTONE LA PTCLDY    41  37  86 NW3       30.38R
SALMON         CLEAR     59  52  78 CALM      30.12R
MULLAN PASS    CLEAR     57  39  51 NW3       30.24S
SAND POINT     CLEAR     61  54  78 CALM      30.03R
SPOKANE        CLEAR     75  43  32 SW8       30.03R

$$




USA.gov is the U.S. government's official web portal to all federal, state and local government web resources and services.